When you browse on this site, cookies collect data to enhance your experience and personalize the content and advertising you see.
Visit our Privacy Policy to learn more. By continuing to use the site, you agree to this use of cookies and data.
  • In Hungary
  • List of Countries
  • For 7 days
  • Water Temperature
  • Weather Map
  • News
  • Weather Widgets
  • user-avatar
    Login

    Hourly Weather Bayukovo

    Today, 18 August, Sunday

    Time Temperature Precipitation Wind Pressure Humidity
    00:00 +22°C° 0 mm 1 mps 750 mmHg 83%
    01:00 +22°C° 0 mm 1 mps 750 mmHg 82%
    02:00 +22°C° 0 mm 1 mps 751 mmHg 81%
    03:00 +22°C° 0 mm 1 mps 751 mmHg 80%
    04:00 +21°C° 0 mm 1 mps 751 mmHg 79%
    05:00 +22°C° 0 mm 1 mps 751 mmHg 79%
    06:00 +22°C° 0 mm 1 mps 751 mmHg 79%
    07:00 +22°C° 0 mm 1 mps 751 mmHg 79%
    08:00 +24°C° 0 mm 1 mps 752 mmHg 75%
    09:00 +25°C° 0 mm 2 mps 752 mmHg 71%
    10:00 +27°C° 0 mm 2 mps 752 mmHg 68%
    11:00 +28°C° 0 mm 2 mps 752 mmHg 64%
    12:00 +29°C° 0 mm 2 mps 752 mmHg 61%
    13:00 +30°C° 0 mm 3 mps 752 mmHg 58%
    14:00 +30°C° 0 mm 2 mps 752 mmHg 59%
    15:00 +30°C° 0 mm 2 mps 752 mmHg 60%
    16:00 +30°C° 0 mm 2 mps 752 mmHg 60%
    17:00 +29°C° 0 mm 2 mps 752 mmHg 65%
    18:00 +27°C° 0 mm 2 mps 752 mmHg 71%
    19:00 +26°C° 0 mm 2 mps 752 mmHg 76%
    20:00 +25°C° 0 mm 2 mps 752 mmHg 77%
    21:00 +24°C° 0 mm 3 mps 752 mmHg 77%
    22:00 +24°C° 0 mm 3 mps 753 mmHg 78%
    23:00 +22°C° 0 mm 3 mps 753 mmHg 78%

    Tomorrow, 19 August, Monday

    Time Temperature Precipitation Wind Pressure Humidity
    00:00 +22°C° 0 mm 3 mps 753 mmHg 78%
    01:00 +22°C° 0 mm 3 mps 753 mmHg 77%
    02:00 +21°C° 0 mm 3 mps 753 mmHg 78%
    03:00 +21°C° 0 mm 3 mps 753 mmHg 78%
    04:00 +20°C° 0 mm 3 mps 753 mmHg 79%
    05:00 +21°C° 0 mm 2 mps 753 mmHg 77%
    06:00 +22°C° 0 mm 1 mps 754 mmHg 75%
    07:00 +22°C° 0 mm 1 mps 754 mmHg 73%
    08:00 +23°C° 0 mm 1 mps 754 mmHg 71%
    09:00 +24°C° 0 mm 2 mps 754 mmHg 70%
    10:00 +26°C° 0 mm 3 mps 754 mmHg 68%
    11:00 +27°C° 0 mm 3 mps 754 mmHg 65%
    12:00 +28°C° 0 mm 4 mps 754 mmHg 62%
    13:00 +29°C° 0 mm 5 mps 754 mmHg 59%
    14:00 +29°C° 0 mm 5 mps 754 mmHg 61%
    15:00 +29°C° 0 mm 5 mps 754 mmHg 63%
    16:00 +29°C° 0 mm 5 mps 753 mmHg 65%
    17:00 +28°C° 0 mm 4 mps 753 mmHg 70%
    18:00 +28°C° 0 mm 4 mps 753 mmHg 75%
    19:00 +27°C° 0 mm 3 mps 753 mmHg 80%
    20:00 +26°C° 0 mm 3 mps 753 mmHg 81%
    21:00 +25°C° 0 mm 3 mps 752 mmHg 81%
    22:00 +24°C° 0 mm 3 mps 752 mmHg 82%
    23:00 +24°C° 0 mm 3 mps 752 mmHg 77%

    Day after tomorrow, 20 August, Tuesday

    Time Temperature Precipitation Wind Pressure Humidity
    00:00 +22°C° 0 mm 3 mps 752 mmHg 73%
    01:00 +22°C° 0 mm 3 mps 752 mmHg 69%
    02:00 +22°C° 0 mm 4 mps 752 mmHg 68%
    03:00 +22°C° 0 mm 4 mps 752 mmHg 68%
    04:00 +22°C° 0 mm 5 mps 752 mmHg 67%
    05:00 +22°C° 0.1 mm 4 mps 752 mmHg 66%
    06:00 +23°C° 0.1 mm 2 mps 752 mmHg 65%
    07:00 +23°C° 0.1 mm 1 mps 752 mmHg 64%
    08:00 +23°C° 0 mm 1 mps 752 mmHg 65%
    09:00 +24°C° 0 mm 2 mps 752 mmHg 67%
    10:00 +25°C° 0 mm 2 mps 752 mmHg 69%
    11:00 +25°C° 0 mm 2 mps 752 mmHg 67%
    12:00 +26°C° 0 mm 2 mps 751 mmHg 64%
    13:00 +27°C° 0 mm 3 mps 751 mmHg 62%
    14:00 +27°C° 0.3 mm 3 mps 751 mmHg 64%
    15:00 +27°C° 0.3 mm 4 mps 751 mmHg 66%
    16:00 +26°C° 0.3 mm 4 mps 751 mmHg 68%
    17:00 +25°C° 0.2 mm 4 mps 751 mmHg 73%
    18:00 +23°C° 0.2 mm 4 mps 751 mmHg 78%
    19:00 +22°C° 0.2 mm 3 mps 751 mmHg 83%
    20:00 +21°C° 0 mm 3 mps 751 mmHg 86%
    21:00 +20°C° 0 mm 3 mps 751 mmHg 90%
    22:00 +19°C° 0 mm 3 mps 751 mmHg 94%
    23:00 +19°C° 0 mm 3 mps 751 mmHg 95%

    21 August, Wednesday

    Time Temperature Precipitation Wind Pressure Humidity
    00:00 +18°C° 0 mm 3 mps 751 mmHg 96%
    01:00 +18°C° 0 mm 3 mps 751 mmHg 97%
    02:00 +18°C° 0 mm 3 mps 751 mmHg 97%
    03:00 +18°C° 0 mm 3 mps 751 mmHg 98%
    04:00 +17°C° 0 mm 3 mps 751 mmHg 98%
    05:00 +18°C° 0 mm 3 mps 751 mmHg 97%
    06:00 +18°C° 0 mm 3 mps 751 mmHg 96%
    07:00 +19°C° 0 mm 3 mps 751 mmHg 95%
    08:00 +19°C° 0 mm 3 mps 751 mmHg 90%
    09:00 +20°C° 0 mm 3 mps 752 mmHg 85%
    10:00 +21°C° 0 mm 3 mps 752 mmHg 81%
    11:00 +21°C° 0 mm 4 mps 752 mmHg 80%
    12:00 +22°C° 0 mm 4 mps 752 mmHg 79%
    13:00 +22°C° 0 mm 4 mps 752 mmHg 78%
    14:00 +22°C° 0 mm 4 mps 752 mmHg 78%
    15:00 +22°C° 0 mm 3 mps 752 mmHg 77%
    16:00 +22°C° 0 mm 3 mps 752 mmHg 77%
    17:00 +21°C° 0 mm 3 mps 753 mmHg 80%
    18:00 +20°C° 0 mm 2 mps 753 mmHg 82%
    19:00 +20°C° 0 mm 2 mps 753 mmHg 85%
    20:00 +20°C° 0 mm 1 mps 753 mmHg 87%
    21:00 +19°C° 0 mm 1 mps 753 mmHg 90%
    22:00 +18°C° 0 mm 1 mps 753 mmHg 92%
    23:00 +18°C° 0 mm 1 mps 753 mmHg 92%

    22 August, Thursday

    Time Temperature Precipitation Wind Pressure Humidity
    00:00 +16°C° 0 mm 1 mps 753 mmHg 92%
    01:00 +15°C° 0 mm 0 mps 753 mmHg 92%
    02:00 +15°C° 0 mm 0 mps 753 mmHg 92%
    03:00 +15°C° 0 mm 0 mps 753 mmHg 92%
    04:00 +14°C° 0 mm 0 mps 753 mmHg 92%
    05:00 +15°C° 0 mm 0 mps 753 mmHg 91%
    06:00 +16°C° 0 mm 0 mps 753 mmHg 89%
    07:00 +16°C° 0 mm 0 mps 753 mmHg 87%
    08:00 +18°C° 0 mm 0 mps 753 mmHg 83%
    09:00 +21°C° 0 mm 1 mps 754 mmHg 79%
    10:00 +22°C° 0 mm 1 mps 754 mmHg 75%
    11:00 +23°C° 0 mm 1 mps 753 mmHg 72%
    12:00 +24°C° 0 mm 1 mps 753 mmHg 70%
    13:00 +25°C° 0 mm 2 mps 753 mmHg 68%
    14:00 +25°C° 0 mm 2 mps 753 mmHg 68%
    15:00 +26°C° 0 mm 2 mps 753 mmHg 68%
    16:00 +26°C° 0 mm 2 mps 752 mmHg 68%
    17:00 +25°C° 0 mm 2 mps 752 mmHg 73%
    18:00 +24°C° 0 mm 2 mps 752 mmHg 78%
    19:00 +23°C° 0 mm 2 mps 751 mmHg 83%
    20:00 +22°C° 0 mm 3 mps 751 mmHg 86%
    21:00 +21°C° 0 mm 3 mps 751 mmHg 89%
    22:00 +20°C° 0 mm 3 mps 751 mmHg 92%
    23:00 +19°C° 0 mm 3 mps 751 mmHg 92%

    23 August, Friday

    Time Temperature Precipitation Wind Pressure Humidity
    00:00 +19°C° 0 mm 3 mps 751 mmHg 92%
    01:00 +19°C° 0 mm 3 mps 750 mmHg 93%
    02:00 +18°C° 0 mm 3 mps 750 mmHg 92%
    03:00 +18°C° 0 mm 3 mps 750 mmHg 92%
    04:00 +18°C° 0 mm 4 mps 750 mmHg 92%
    05:00 +19°C° 0.1 mm 4 mps 750 mmHg 89%
    06:00 +19°C° 0.1 mm 5 mps 750 mmHg 86%
    07:00 +20°C° 0.1 mm 5 mps 750 mmHg 83%
    08:00 +21°C° 0.3 mm 6 mps 750 mmHg 83%
    09:00 +22°C° 0.3 mm 6 mps 750 mmHg 83%
    10:00 +23°C° 0.3 mm 6 mps 750 mmHg 83%
    11:00 +22°C° 0.2 mm 6 mps 750 mmHg 80%
    12:00 +22°C° 0.2 mm 6 mps 750 mmHg 76%
    13:00 +22°C° 0.2 mm 6 mps 750 mmHg 73%
    14:00 +21°C° 0 mm 5 mps 750 mmHg 73%
    15:00 +20°C° 0 mm 5 mps 750 mmHg 73%
    16:00 +20°C° 0 mm 4 mps 751 mmHg 73%
    17:00 +19°C° 0 mm 4 mps 751 mmHg 75%
    18:00 +19°C° 0 mm 3 mps 751 mmHg 77%
    19:00 +18°C° 0 mm 2 mps 751 mmHg 79%
    20:00 +17°C° 0 mm 2 mps 751 mmHg 81%
    21:00 +16°C° 0 mm 2 mps 752 mmHg 82%
    22:00 +16°C° 0 mm 1 mps 752 mmHg 84%
    23:00 +15°C° 0 mm 1 mps 752 mmHg 86%
    Show more